Location: Watson Lake
(60.1170°N, 128.8000°W)
Time: 21:02:47
(UTC-08:00)

Daily predictions for brighter satellites

Satellite Brightness Start Highest point End
(mag) Time Altitude Azimuth Time Altitude Azimuth Time Altitude Azimuth
Cosmos 1908 3.5 17:11:04 10° NNW 17:14:59 78° WSW 17:18:53 10° S
Timation 1 Rocket 4.4 17:10:15 10° NW 17:16:19 87° NE 17:22:22 10° SE
Tsikada Rocket 4.3 17:10:51 10° SSE 17:17:04 55° E 17:23:19 10° NNE
Cosmos 1125 Rocket 3.8 17:13:11 10° NW 17:18:25 75° WSW 17:23:36 10° SSE
Cosmos 2285 Rocket 4.2 17:13:22 10° SW 17:19:44 79° NW 17:26:12 10° NNE
CENTAUR R/B 3.3 17:14:27 10° SSW 17:20:23 41° SE 17:27:03 10° ENE
CSL-04 Rocket 4.3 17:15:32 10° S 17:20:56 63° WSW 17:26:18 10° NNW
SJ-7 4.4 17:17:18 10° SSE 17:21:16 60° ENE 17:25:13 10° NNW
Cosmos 1634 Rocket 4.0 17:15:04 10° NNW 17:21:17 67° ENE 17:27:26 10° SSE
Cosmos 1814 Rocket 4.3 17:16:12 10° S 17:21:25 55° ESE 17:26:39 10° NE
MSX 3.8 17:16:11 10° SE 17:21:50 65° ENE 17:27:33 10° NNW
MOS 1 4.3 17:16:34 10° SSE 17:22:14 75° ENE 17:27:56 10° NNW
Cosmos 1766 Rocket 3.7 17:19:40 10° S 17:24:03 61° E 17:28:25 10° NNE
SMAP 3.0 17:20:22 10° SSE 17:25:01 73° ENE 17:29:42 10° NNW
Cosmos 1707 Rocket 4.4 17:21:20 10° N 17:25:08 28° ENE 17:28:55 10° ESE
Cosmos 1300 2.8 17:21:37 10° N 17:25:25 54° ENE 17:29:13 10° SSE
Cosmos 371 Rocket 4.3 17:21:29 10° SSE 17:25:30 27° ESE 17:29:32 10° NE
Cosmos 1607 4.2 17:20:34 10° W 17:26:42 62° NNW 17:32:54 10° ENE
COSMO-SKYMED 1 4.2 17:25:49 10° NE 17:28:25 15° E 17:31:00 10° ESE
CZ-4 R/B 1.3 17:25:20 10° SSE 17:29:15 86° ENE 17:33:15 10° NNW
Cosmos 841 Rocket 4.0 17:25:08 10° S 17:30:03 41° ESE 17:34:59 10° NE
SJ-6B 4.1 17:27:34 10° ESE 17:30:52 23° NE 17:34:11 10° N
Cosmos 2084 Rocket 3.1 17:28:09 10° WNW 17:31:58 72° NNE 17:35:48 10° ESE
Meteor 1-21 Rocket 4.4 17:27:01 10° S 17:32:47 62° E 17:38:29 10° NNE
SJ-12 4.0 17:30:15 10° SSE 17:34:24 88° WSW 17:38:33 10° NNW
Meteor 2-2 Rocket 4.4 17:29:04 10° NNW 17:34:45 80° WSW 17:40:23 10° S
Cosmos 2151 4.0 17:32:10 10° SE 17:35:38 25° E 17:39:06 10° NNE
Cosmos 2369 Rocket 2.7 17:30:43 10° NW 17:36:06 40° NNE 17:41:26 10° E
YAOGAN 1 2.5 17:32:52 10° SSE 17:37:13 79° ENE 17:41:35 10° NNW
Thor Agena Rocket 4.4 17:32:58 10° NNE 17:37:39 31° E 17:42:17 10° SSE
Cosmos 1408 Rocket 3.5 17:35:24 10° S 17:39:50 81° ESE 17:44:16 10° NNE
COSMOS 2455 3.3 17:34:23 10° WSW 17:40:21 56° NNW 17:46:09 11° NE
Meteor 1-27 4.3 17:34:36 10° NNW 17:40:25 67° ENE 17:46:14 10° SSE
Cosmos 468 Rocket 4.0 17:36:18 10° SSW 17:41:29 83° ESE 17:46:39 10° NNE
Meteor 2-10 3.9 17:37:00 10° NNW 17:42:05 66° ENE 17:47:14 10° SSE
Cosmos 2237 Rocket 3.2 17:37:41 10° SSE 17:42:21 27° ESE 17:46:54 11° NE
AQUARIUS 4.3 17:38:23 10° SSE 17:42:54 85° WSW 17:47:28 10° NNW
EO 1 Del DPAF 3.2 17:40:47 10° NNE 17:44:40 84° ESE 17:48:33 10° SSW
FREGAT/IRIS 4.1 17:43:43 10° ESE 17:45:59 19° ENE 17:48:15 10° N
Cosmos 44 Rocket 4.3 17:43:01 10° S 17:47:28 31° SE 17:51:15 13° ENE
USA 161 3.8 17:48:01 10° NNW 17:49:44 17° WNW 17:51:22 10° WSW
CZ-2C R/B 3.8 17:45:26 10° NNE 17:50:14 71° ESE 17:55:01 10° S
SL-16 R/B 3.7 17:47:47 10° SE 17:51:19 17° E 17:53:50 13° ENE
SL-14 R/B 4.1 17:47:52 10° SSE 17:51:24 31° E 17:55:01 10° NNE
In-Cosmos 22 4.4 17:46:01 10° SSW 17:51:30 78° WNW 17:57:10 10° NNE
SPOT 3 Rocket 3.7 17:46:43 10° SSE 17:51:54 80° WSW 17:57:08 10° NNW
COSMOS 2428 2.8 17:46:58 10° SSW 17:52:37 63° ESE 17:58:14 10° NE
Cosmos 1484 Rocket 2.8 17:49:41 10° SSE 17:53:39 65° ENE 17:57:41 10° NNW
Lacrosse 4 Rocket 1.3 17:49:46 10° NW 17:53:53 86° NE 17:57:58 10° SE
Cosmos 2297 4.0 17:48:16 10° NW 17:53:58 73° SW 17:59:41 10° SSE
Cosmos 2228 Rocket 4.1 17:50:16 10° NNW 17:54:34 50° W 17:58:51 10° S
Cosmos 1151 Rocket 3.1 17:50:54 10° NNW 17:55:13 82° W 17:59:32 10° S
Blok-2BL 3.4 17:52:01 10° WNW 17:55:21 74° SSW 17:58:40 10° SE
Cosmos 1340 Rocket 4.0 17:52:34 10° SE 17:55:39 22° E 17:58:09 13° NE
Cosmos 2237 4.2 17:51:25 10° SSW 17:57:07 75° SE 18:02:47 10° NE
Resurs 01 Rocket 2.6 17:54:18 10° ESE 17:57:59 26° NE 18:01:41 10° N
GEOS 3 Rocket 3.6 17:55:12 13° ENE 17:59:55 84° SSE 18:05:10 10° SW
Cosmos 1869 4.1 17:56:29 10° N 18:00:04 29° ENE 18:03:39 10° SE
Cosmos 1076 Rocket 4.1 17:56:43 10° SSW 18:00:57 58° WNW 18:05:14 10° N
Cosmos 1867 3.6 17:56:25 10° WNW 18:01:54 65° NNE 18:07:15 11° ESE
CZ-4C R/B 2.7 17:56:15 10° WNW 18:02:25 67° N 18:08:40 14° E
Cosmos 1743 Rocket 3.5 18:01:34 10° S 18:06:03 76° E 18:10:33 10° NNE
Cosmos 921 Rocket 4.1 18:02:51 10° NNW 18:06:39 26° NE 18:09:05 17° E
Aureole 2 Rocket 4.0 18:03:24 10° SSE 18:06:44 25° ESE 18:08:45 18° ENE
Cosmos 2279 Rocket 4.0 18:01:15 10° NNW 18:07:30 81° ENE 18:13:45 10° SSE
Cosmos 1174 4.0 18:07:08 10° WSW 18:10:16 50° NNW 18:12:50 18° NE
Cosmos 1763 Rocket 3.4 18:07:55 10° SSW 18:13:07 82° ESE 18:18:10 11° NNE
Cosmos 2322 3.9 18:08:07 10° SW 18:13:50 73° NW 18:19:13 12° NE
Cosmos 2346 Rocket 4.4 18:08:00 10° S 18:14:13 75° E 18:20:25 10° NNE
SL-16 R/B 3.0 18:09:39 10° WSW 18:15:06 45° NNW 18:20:10 12° NE
SKYMED 2 4.3 18:13:05 10° NNE 18:17:04 33° E 18:21:01 10° SSE
Cosmos 2242 Rocket 3.9 18:12:57 10° N 18:17:11 42° ENE 18:21:25 10° SE
Cosmos 2084 4.1 18:14:54 10° SSW 18:18:20 32° SE 18:20:02 22° E
FENGYUN 3A 4.0 18:13:22 10° SE 18:18:22 41° ENE 18:23:25 10° N
METEOR-M 4.1 18:13:07 10° SE 18:18:23 60° ENE 18:23:41 10° NNW
Cosmos 540 Rocket 3.8 18:13:50 10° S 18:18:45 45° ESE 18:22:47 15° NE
Cosmos 2058 3.2 18:14:58 10° SSE 18:18:51 42° E 18:22:46 10° NNE
IDEFIX/ARIANE 42P 3.7 18:14:12 10° S 18:19:15 47° W 18:24:22 10° NNW
SL-16 R/B 3.9 18:14:35 10° NNE 18:20:08 35° NW 18:25:41 10° WSW
H-2A R/B 3.8 18:19:56 22° ENE 18:20:37 24° ENE 18:23:40 10° N
Lacrosse 5 2.2 18:17:50 10° WSW 18:22:52 63° S 18:26:32 18° E
Cosmos 2360 Rocket 2.6 18:18:20 10° WSW 18:23:55 62° NW 18:28:56 13° NE
ATLAS 5 CENTAUR R/B 2.2 18:18:50 10° WNW 18:24:18 73° NNE 18:28:57 17° E
Cosmos 1805 Rocket 4.2 18:20:23 10° SSE 18:24:27 35° E 18:28:25 10° NNE
Cosmos 1980 Rocket 3.4 18:20:30 10° W 18:25:28 31° NNW 18:29:34 14° NE
NOAA 12 4.0 18:21:24 10° SSE 18:26:38 71° ENE 18:31:56 10° NNW
ATLAS 3B R/B 2.9 18:20:59 10° W 18:28:15 66° N 18:33:09 21° E
Cosmos 1626 3.1 18:25:18 10° SSE 18:28:30 27° E 18:28:54 26° E
Cosmos 2333 4.1 18:22:58 10° SW 18:28:36 85° SE 18:33:18 15° NE
USA 238 DEB 3.9 18:21:42 10° W 18:28:44 69° N 18:33:45 21° ENE
USA 238 3.9 18:21:47 10° W 18:28:50 69° N 18:33:51 21° ENE
Cosmos 1980 3.9 18:25:21 10° SSW 18:30:51 53° ESE 18:34:54 18° NE
Cosmos 1500 Rocket 3.5 18:26:42 10° SSW 18:31:05 88° WNW 18:35:31 10° NNE
Cosmos 1726 3.8 18:29:11 10° NNW 18:32:42 37° W 18:36:12 10° SSW
Cosmos 1697 Rocket 4.0 18:31:22 10° WNW 18:36:16 28° N 18:39:40 17° NE
Cosmos 1933 4.1 18:32:50 10° N 18:36:27 30° ENE 18:37:04 29° E
Sich 1 3.7 18:33:15 10° SSE 18:37:12 32° E 18:39:06 23° NE
USA 215 4.2 18:31:08 10° SE 18:37:25 47° SSW 18:43:43 10° WNW
Cosmos 332 Rocket 3.8 18:32:51 10° SSW 18:37:44 88° WNW 18:41:51 15° NNE
Nadezhda 4 Rocket 4.3 18:32:06 10° SSE 18:37:56 42° E 18:43:49 10° NNE
Cosmos 44 3.8 18:33:29 10° SSW 18:38:20 43° SE 18:40:34 27° ENE
Cosmos 1356 Rocket 4.0 18:35:14 10° SSE 18:38:46 31° E 18:39:19 30° ENE
Cosmos 1455 2.0 18:37:21 10° NNW 18:41:10 82° ENE 18:44:59 10° SSE
Cosmos 1943 Rocket 2.5 18:35:53 10° NW 18:41:15 47° NE 18:44:17 24° E
Meteor 1-11 4.2 18:38:09 10° S 18:43:50 68° E 18:49:37 10° NNE
CZ-2C R/B 4.4 18:39:53 10° SSW 18:44:11 30° W 18:48:22 10° NNW
CZ-2D R/B 4.0 18:45:42 32° ENE 18:45:42 32° ENE 18:49:04 10° N
ALOS 2.3 18:41:45 10° SE 18:46:18 54° ENE 18:50:53 10° N
Cosmos 1674 4.2 18:43:34 10° SW 18:47:11 38° WNW 18:50:51 10° N
Cosmos 2219 Rocket 2.1 18:41:45 10° SSW 18:47:24 82° SE 18:51:28 20° NE
Cosmos 1328 4.0 18:43:29 10° SSW 18:47:25 73° WNW 18:51:25 10° NNE
Cosmos 1633 Rocket 3.6 18:43:43 10° SSE 18:47:43 35° E 18:48:43 31° ENE
H-2A R/B 4.4 18:50:46 10° NNE 18:50:46 10° NNE 18:51:02 10° NNE
Cosmos 1242 Rocket 2.3 18:47:17 10° NNW 18:50:46 62° ENE 18:53:28 16° SSE
NOSS 0 Rocket 3.9 18:44:36 10° SSW 18:50:47 68° SE 18:55:01 21° NE
NOSS 3-2 (A) 3.8 18:44:48 10° W 18:51:23 71° N 18:55:51 25° ENE
Cosmos 2263 4.2 18:46:24 10° NW 18:52:01 63° NE 18:55:38 22° ESE
Cosmos 1553 Rocket 4.4 18:48:18 10° N 18:54:04 39° ENE 18:57:35 22° ESE
Cosmos 2333 Rocket 2.1 18:49:09 10° SSW 18:54:48 77° SE 18:58:34 22° NE
Cosmos 972 Rocket 4.0 18:50:35 10° NNW 18:55:37 65° ENE 19:00:40 12° SE
SAR-Lupe-4 3.7 18:55:19 45° E 18:55:44 47° ENE 18:59:13 10° N
Cosmos 2322 Rocket 3.4 18:50:45 10° W 18:55:55 34° NNW 18:59:38 17° NE
SAR-Lupe-1 4.4 18:56:31 43° ENE 18:56:31 43° ENE 18:59:51 10° N
USA 116 3.8 18:53:51 13° N 18:56:39 55° WNW 18:59:43 10° SW
HJ-1C 3.4 18:55:31 26° SE 18:57:15 61° ENE 19:00:41 10° N
Helios 1A 3.3 18:56:36 36° E 18:57:37 43° ENE 19:01:38 10° N
Cosmos 783 Rocket 4.5 18:52:28 10° SSW 18:57:44 65° ESE 19:01:05 23° NE
SWAS 4.4 18:53:25 10° NW 18:57:44 72° NE 18:59:40 32° ESE
NOSS 3-2 (C) 3.8 18:52:15 10° W 18:58:49 72° NNW 19:03:02 27° ENE
FengYun 1-2 T 4.1 18:54:23 10° SSE 18:59:55 74° ENE 19:05:26 10° NNW
Cosmos 1092 Rocket 4.3 18:54:28 10° SSE 19:00:25 44° E 19:06:22 10° NNE
Cosmos 1862 Rocket 3.5 18:56:15 10° N 19:00:39 58° ENE 19:04:40 12° SSE
Cosmos 1703 3.1 18:56:55 10° S 19:00:46 63° E 19:02:36 29° NNE
Cosmos 1703 Rocket 4.5 18:59:07 10° N 19:02:11 30° NE 19:02:11 30° NE
Cosmos 1707 Rocket 4.2 18:59:02 10° NNW 19:03:18 57° W 19:07:33 10° S
Cosmos 839 Rocket 4.1 18:57:47 10° WNW 19:04:48 67° NNE 19:07:54 31° E
CZ-4 R/B 4.5 19:02:18 10° SW 19:04:53 17° W 19:07:31 10° NW
SJ-6B 3.0 19:01:01 10° SSE 19:05:10 77° WSW 19:09:22 10° NNW
COSMO-SKYMED 1 2.4 19:01:30 13° NNE 19:05:22 76° ESE 19:09:43 10° SSW
Cosmos 371 Rocket 3.4 19:00:44 10° SW 19:05:34 74° NW 19:08:48 21° NNE
DMSP B5D1-3 4.5 19:03:02 10° NNE 19:08:07 62° ESE 19:13:10 10° S
Cosmos 2056 Rocket 3.5 19:03:48 10° NNW 19:08:55 60° NE 19:11:02 34° ESE
Cosmos 1656 Rocket 4.2 19:04:17 10° NW 19:09:46 43° NNE 19:11:21 35° ENE
CENTAUR R/B 2.7 19:03:58 10° WSW 19:10:35 90° WNW 19:14:43 29° ENE
Cosmos 2084 Rocket 4.2 19:07:44 10° WNW 19:11:21 42° SW 19:13:28 21° SSE
Cosmos 841 Rocket 4.1 19:06:41 10° SW 19:11:53 56° NW 19:15:52 17° NNE
Cosmos 2151 3.5 19:08:31 10° SSW 19:12:40 58° WNW 19:16:52 10° N
Cosmos 1624 Rocket 4.0 19:08:09 10° NNW 19:13:32 67° NE 19:16:00 32° SE
Cosmos 1607 4.1 19:08:34 10° WNW 19:14:42 58° N 19:17:11 36° ENE
Spot 2 Rocket 3.4 19:09:43 10° SSE 19:14:46 82° ENE 19:19:52 10° NNW
Thor Agena Rocket 3.9 19:12:08 10° NNE 19:17:23 66° WNW 19:22:33 10° SW
FREGAT/IRIS 3.4 19:14:25 10° S 19:17:26 54° WSW 19:20:29 10° NNW
Iridium 4 Rocket 3.3 19:13:43 10° SSE 19:23:22 - N 19:17:05 45° SE
Cosmos 2369 Rocket 2.2 19:14:57 10° NW 19:20:41 83° SW 19:24:42 20° SSE
USA 229 DEB 4.5 19:16:18 10° S 19:22:06 30° ESE 19:22:08 30° ESE
USA 229 4.5 19:16:25 10° S 19:22:11 30° ESE 19:22:11 30° ESE
Cosmos 1666 Rocket 3.4 19:19:29 10° S 19:23:51 75° E 19:25:54 31° NNE
Meteor 1-28 Rocket 3.0 19:24:36 60° NNE 19:25:14 89° ESE 19:28:58 10° SSW
Cosmos 2237 Rocket 2.1 19:20:12 10° SW 19:25:52 89° NW 19:28:45 31° NE
ERS-1 Rocket 3.8 19:28:01 33° NE 19:28:01 33° NE 19:31:45 10° N
COSMOS 2455 3.5 19:21:30 10° WNW 19:27:17 44° N 19:29:18 33° NE
SL-14 R/B 4.5 19:23:42 10° SW 19:27:31 43° WNW 19:31:25 10° N
Cosmos 44 Rocket 3.3 19:23:34 10° SW 19:28:39 89° NW 19:29:58 50° NE
Envisat 3.4 19:29:48 43° NE 19:29:48 43° NE 19:34:20 10° N
Cosmos 1340 Rocket 3.2 19:27:56 10° SSW 19:31:50 60° WNW 19:33:50 27° N
Lacrosse 4 Rocket 3.7 19:28:58 10° WNW 19:32:10 22° WSW 19:35:21 10° SSW
Cosmos 1538 Rocket 4.0 19:27:05 10° SSW 19:32:20 62° ESE 19:33:30 49° ENE
Cosmos 1371 Rocket 3.9 19:28:14 10° NNW 19:33:29 87° WSW 19:35:56 32° SSE
Resurs 1-3 3.6 19:30:46 20° SSE 19:33:50 85° WSW 19:38:16 10° NNW
Resurs 01 Rocket 1.8 19:29:41 10° SSE 19:34:08 74° WSW 19:38:37 10° NNW
SL-16 R/B 2.1 19:28:51 10° SSW 19:34:26 63° ESE 19:35:44 49° ENE
Terra 4.1 19:37:31 11° NNE 19:37:31 11° NNE 19:37:59 10° N
Cosmos 1869 4.2 19:32:40 10° NNW 19:36:36 49° W 19:40:30 10° S
COSMOS 2428 3.5 19:31:38 10° WSW 19:37:10 48° NW 19:40:16 25° NNE
Cosmos 1417 Rocket 4.3 19:31:29 10° NNW 19:37:45 74° ENE 19:42:53 15° SSE
GEOS 3 Rocket 4.0 19:36:18 40° NE 19:37:53 56° NNW 19:42:59 10° W
Cosmos 304 Rocket 3.6 19:34:13 10° SSW 19:39:03 86° ESE 19:40:08 55° NE
Aureole 2 Rocket 3.1 19:37:52 10° SW 19:41:55 66° NW 19:42:38 54° N
Meteor 1-26 Rocket 4.1 19:36:24 10° NNW 19:42:12 75° ENE 19:44:37 36° SSE
Meteor 2-10 Rocket 3.3 19:38:56 10° NNW 19:43:59 70° ENE 19:44:20 67° E
Cosmos 921 Rocket 3.0 19:41:02 10° NNW 19:45:30 82° WSW 19:45:56 70° S
Cosmos 1867 4.1 19:40:12 10° WNW 19:45:35 57° SW 19:47:57 32° SSE
CZ-4C R/B 2.6 19:44:54 10° WNW 19:51:26 86° SSW 19:53:53 46° SE
SKYMED 2 4.4 19:50:07 16° N 19:53:26 49° WNW 19:57:37 10° SW
Cosmos 1452 Rocket 3.5 19:48:10 10° NNW 19:53:19 61° NE 19:53:19 61° NE
H-2A R/B 3.3 19:55:09 55° WNW 19:55:09 55° WNW 19:58:25 10° NNW
H-2A R/B 3.9 19:58:33 18° NNE 19:58:33 18° NNE 20:00:25 10° N
Cosmos 2084 4.0 19:53:47 10° WSW 19:56:39 49° WSW 19:56:39 49° WSW
FENGYUN 3A 4.3 19:53:18 10° S 19:58:34 55° W 20:03:54 10° NNW
Cosmos 1627 Rocket 4.3 19:53:38 10° S 19:59:43 67° E 20:05:48 10° NNE
Cosmos 1420 Rocket 4.5 19:55:01 10° NNW 19:59:19 46° NNE 19:59:19 46° NNE
Cosmos 540 Rocket 4.2 19:55:21 10° WSW 20:00:24 51° NW 20:02:38 30° NNE
SL-16 R/B 3.6 19:55:38 10° WNW 20:00:32 28° N 20:02:02 25° NNE
Cosmos 1461 4.3 19:59:23 10° SW 20:01:33 29° SSW 20:01:33 29° SSW
Cosmos 1626 3.2 20:00:08 10° SW 20:03:39 44° WNW 20:03:39 44° WNW
Lacrosse 5 2.3 20:00:37 10° W 20:05:32 50° SSW 20:05:45 49° S
Cosmos 773 Rocket 4.2 20:01:14 10° SSW 20:05:27 58° S 20:05:27 58° S
Cosmos 2360 Rocket 3.5 20:03:57 10° W 20:08:57 31° NNW 20:10:43 26° NNE
DNEPR-1 R/B 4.0 20:03:12 10° WSW 20:09:06 77° NNW 20:09:23 74° N
ATLAS 5 CENTAUR R/B 2.6 20:03:32 10° WNW 20:09:07 60° SW 20:10:32 47° S
Cosmos 1980 Rocket 3.4 20:06:11 10° NW 20:11:03 29° N 20:11:20 28° NNE
S3M 3.9 20:05:35 10° NNW 20:12:02 89° W 20:14:38 39° S
Cosmos 1933 4.3 20:09:19 10° NNW 20:13:00 47° W 20:13:00 47° W
Sich 1 3.9 20:10:29 10° SW 20:14:48 49° WNW 20:16:10 36° NNW
Cosmos 1980 4.3 20:09:27 10° WSW 20:15:03 54° NW 20:16:47 40° NNE
Cosmos 1356 Rocket 4.4 20:11:54 10° SW 20:15:33 43° WNW 20:15:33 43° WNW
Cosmos 44 3.6 20:14:24 10° WSW 20:19:00 67° WNW 20:19:00 67° WNW
ATLAS 3B R/B 2.5 20:12:17 10° WNW 20:19:29 88° NNE 20:20:25 70° ESE
USA 238 DEB 3.6 20:13:11 10° WNW 20:20:16 80° NNE 20:21:12 68° E
USA 238 3.6 20:13:17 10° WNW 20:20:22 80° NNE 20:21:18 68° E
Cosmos 1697 Rocket 3.8 20:16:40 10° NW 20:21:24 32° N 20:21:24 32° N
ALOS 3.9 20:19:47 10° SSW 20:24:00 33° W 20:28:16 10° NNW
Cosmos 1943 Rocket 2.4 20:19:46 10° NW 20:25:15 62° WSW 20:25:50 59° SSW
Cosmos 1633 Rocket 4.1 20:21:14 10° SW 20:25:28 44° WNW 20:25:54 43° NW
ARGOS 4.4 20:28:04 30° N 20:28:04 30° N 20:31:01 10° NNW
Cosmos 2026 Rocket 3.9 20:20:23 10° S 20:28:57 40° NNE 20:32:42 10° NNE
Aureole 1 Rocket 4.2 20:25:15 10° SSW 20:31:43 88° WNW 20:35:40 33° NNE
Cosmos 2219 Rocket 3.2 20:26:35 10° W 20:31:53 40° NNW 20:33:12 35° N
Helios 1A 4.4 20:33:15 37° W 20:33:18 37° W 20:37:15 10° NNW
Cosmos 2333 Rocket 3.1 20:34:10 10° WSW 20:39:33 42° NNW 20:40:34 39° N
Cosmos 1553 Rocket 4.3 20:33:44 10° NNW 20:39:49 63° W 20:42:19 36° SSW
Cosmos 2322 Rocket 3.6 20:36:39 10° NW 20:41:27 28° N 20:41:27 28° N
NOSS 3-2 (A) 3.7 20:36:03 10° WNW 20:42:55 74° NNE 20:43:15 73° NE
NOSS 3-2 (C) 3.8 20:43:33 10° WNW 20:50:24 73° NNE 20:50:29 73° NNE
Cosmos 1656 Rocket 4.2 20:48:04 10° NW 20:52:45 58° WNW 20:52:45 58° WNW
CENTAUR R/B 2.9 20:54:53 10° W 21:01:48 69° N 21:01:55 68° N
Cosmos 1607 4.2 20:56:08 10° WNW 21:01:19 64° WNW 21:01:19 64° WNW
Cosmos 2369 Rocket 4.2 20:59:35 10° NW 21:04:02 24° WSW 21:06:34 18° SW
Cosmos 839 Rocket 4.5 20:58:20 10° NW 21:04:32 54° WSW 21:04:32 54° WSW
ERS-1 Rocket 4.4 21:08:00 33° NW 21:08:00 33° NW 21:10:51 10° NNW
Envisat 4.3 21:10:00 37° NW 21:10:00 37° NW 21:13:31 10° NNW
Cosmos 2237 Rocket 3.4 21:05:21 10° W 21:10:35 37° NNW 21:10:35 37° NNW
Resurs 01 Rocket 4.5 21:08:46 10° WSW 21:11:25 15° W 21:14:05 10° NW
USA 229 DEB 4.5 21:05:20 10° SW 21:09:37 41° SW 21:09:37 41° SW
Terra 4.4 21:16:24 13° N 21:16:24 13° N 21:16:52 10° N
COSMOS 2455 3.7 21:08:07 10° NW 21:12:27 45° NNW 21:12:27 45° NNW
SL-16 R/B 3.3 21:13:20 10° WSW 21:17:40 42° WNW 21:17:40 42° WNW
COSMOS 2428 4.3 21:17:45 10° WNW 21:22:17 29° NNW 21:22:17 29° NNW
H-2A R/B 4.3 21:39:11 18° NNW 21:39:11 18° NNW 21:40:25 10° NNW
CZ-4C R/B 3.7 21:33:26 10° WNW 21:39:05 40° WSW 21:39:05 40° WSW
SL-16 R/B 4.1 21:41:04 10° NW 21:43:54 25° NNW 21:43:54 25° NNW
Lacrosse 5 4.4 21:43:46 10° W 21:44:58 15° W 21:44:58 15° W
ATLAS 5 CENTAUR R/B 4.3 21:48:44 10° WNW 21:52:06 21° WSW 21:52:06 21° WSW
Cosmos 2360 Rocket 4.2 21:49:39 10° NW 21:52:28 23° NNW 21:52:28 23° NNW
Cosmos 1980 Rocket 4.1 21:50:49 10° NW 21:53:06 24° NNW 21:53:06 24° NNW
ATLAS 3B R/B 4.0 22:03:17 10° WNW 22:07:41 34° W 22:07:41 34° W
Cosmos 2219 Rocket 4.4 22:12:28 10° WNW 22:14:57 21° NW 22:14:57 21° NW
Cosmos 2333 Rocket 4.4 22:20:17 10° WNW 22:22:36 20° NW 22:22:36 20° NW
Cosmos 2322 Rocket 4.5 22:21:33 10° NW 22:23:16 19° NNW 22:23:16 19° NNW
CENTAUR R/B 4.3 22:45:50 10° WNW 22:49:06 31° WNW 22:49:06 31° WNW
